Lid_Strength_Index
7 9 11 9 8 8 8 9 10 8 8 10 9 9 8 9 10 10 10 11 11 11 11 10 9 8 8 8 8 7 6 6 6 6 7 7 8 8 9 9 8 8 7 7
10 11 8 7 8 8 10 11 11 9 10 11 10 10 8 9 9 9 10 11 11 12 11 11 10 8 8 8 7 7 6 5 5 5 7 8 9 10 10 10 10 10 9 9
10 9 8 9 10 11 11 12 11 11 11 11 11 11 10 8 10 11 11 10 11 11 11 11 10 10 9 8 8 8 7 7 7 8 9 9 9 9 11 11 11 11 10 10
9 7 10 11 11 11 13 10 11 12 13 14 11 15 10 9 12 12 12 12 12 11 11 11 11 11 10 10 9 9 9 8 8 7 7 8 10 12 12 12 11 11 11 11
11 12 12 12 11 11 12 10 11 12 13 13 12 15 12 12 14 13 13 12 12 11 11 12 12 12 12 11 11 10 10 10 9 9 10 10 11 11 12 12 12 11 11 11
10 10 10 10 11 11 10 12 13 13 13 16 13 14 13 14 14 13 13 13 12 12 12 12 12 13 13 12 11 11 12 12 11 11 11 11 12 12 12 12 12 12 12 12
11 11 10 10 12 11 11 12 16 17 17 18 13 14 13 11 12 12 13 13 12 12 13 13 14 13 13 13 13 13 13 13 12 11 12 11 11 11 12 12 12 12 13 13
13 14 11 11 10 11 12 12 16 21 19 16 16 17 14 12 12 12 11 12 11 12 12 13 13 13 13 13 13 13 13 14 13 13 12 12 12 12 12 12 12 13 13 13
13 13 10 10 9 9 12 14 10 15 18 18 15 14 12 14 14 13 12 12 12 12 13 13 13 13 14 14 14 13 14 13 13 13 12 12 12 12 13 13 13 13 13 13
10 14 12 12 11 11 11 11 15 15 21 21 16 15 14 15 15 14 13 13 12 13 13 13 13 13 13 14 14 13 13 13 13 13 13 13 13 13 13 13 13 13 13 13
9 11 14 13 14 13 14 14 13 13 14 18 18 16 11 11 12 13 13 12 12 13 13 13 13 13 13 13 14 14 13 13 13 13 13 13 13 12 12 13 13 13 13 13
10 12 15 13 11 11 11 13 13 15 17 15 15 15 13 11 10 11 12 12 12 12 12 12 13 13 14 14 14 14 13 13 13 12 12 12 12 12 12 13 13 13 14 14
11 14 18 16 14 14 15 13 12 12 13 16 17 15 13 12 11 11 11 11 11 12 12 12 12 13 14 14 14 14 13 13 12 12 12 12 12 12 12 13 13 13 14 14
9 13 15 17 13 13 16 14 13 13 16 15 15 13 14 13 12 11 11 11 11 11 12 12 12 13 13 14 14 14 13 13 12 12 12 12 12 12 12 13 13 14 14 15
11 15 14 12 11 12 13 14 14 15 14 15 13 13 11 12 12 11 11 11 11 12 12 12 12 12 12 13 13 13 13 13 12 12 12 12 12 12 12 13 14 15 15 15
12 15 13 15 13 13 14 13 13 14 13 13 12 12 9 10 10 11 11 11 12 12 11 11 11 11 12 12 12 13 13 13 12 13 13 12 12 13 13 14 15 15 15 15
14 15 16 17 14 14 19 16 13 13 12 12 14 12 12 12 12 11 11 11 11 11 11 11 11 11 11 11 12 12 12 12 13 13 13 13 13 14 14 15 15 15 15 15
15 15 15 17 16 21 14 12 12 12 11 11 11 12 11 12 12 11 9 10 11 11 10 10 10 10 10 10 11 11 12 13 14 14 13 14 14 14 14 14 15 15 15 15
13 14 16 17 17 15 14 18 15 14 14 11 12 13 15 15 14 13 10 9 10 10 10 10 10 10 10 11 11 12 13 14 14 14 14 14 14 14 14 15 15 14 14 15
16 15 15 17 19 20 15 16 14 13 17 12 12 14 16 15 15 11 13 12 12 12 12 12 11 12 13 12 12 13 14 14 14 13 13 13 13 14 15 15 15 14 14 15
18 17 18 16 17 16 14 17 16 17 15 15 12 14 15 14 13 13 13 14 13 13 13 13 13 13 13 13 14 14 14 14 13 13 13 13 14 15 15 14 14 15 16 16
16 17 18 16 18 18 16 18 15 15 16 15 13 14 15 15 15 14 14 14 14 14 14 14 14 14 14 14 14 14 14 13 13 14 14 15 16 15 15 16 16 16 16 16
17 14 14 15 15 17 15 16 15 14 13 15 14 14 14 15 16 15 15 15 15 14 15 14 14 14 14 14 13 14 13 14 15 15 16 16 16 15 16 17 17 16 16 15
17 16 16 15 17 17 15 13 14 14 14 14 14 14 14 15 16 16 15 15 15 14 15 15 15 15 15 14 14 13 14 15 16 16 17 17 17 17 17 16 15 15 14 14
16 15 16 18 17 16 15 14 12 14 14 15 15 14 14 14 15 15 15 14 14 14 15 15 14 14 14 14 14 14 15 16 16 15 16 16 16 17 16 15 14 14 13 12
16 16 17 17 15 13 13 12 12 14 15 14 14 15 14 14 14 14 14 14 14 14 14 15 15 15 14 14 14 15 16 16 15 15 15 15 14 15 14 14 14 12 11 11